Date String (YYYY-MM-DD hh:mm:ss) UTC,Instrument flags,Ambient pressure (hPa),Sample flow (lpm),Bypass flow (lpm),Sample temperature (°C),Ambient temperature (°C),ASC tube jacket temperature (°C),LED temperature (°C),Box temperature (°C),Sample RH (%),Span deviation,Mass concentration (μg/m³),Mass concentration (μg/m³),Mass concentration (μg/m³)
DateTimeUTC,F1_M11,P_M11,Q1_M11,Q2_M11,T1_M11,T2_M11,T3_M11,T4_M11,T5_M11,U1_M11,ZSPAN_M11,X0_M11,X2_M11,X1_M11
2022-03-30 19:00:00,,0817.5,5.00,0.00,22.8,22.2,00.0,31.6,24.6,13.8,0001.7,0012.25,0006.66,0006.11
2022-03-30 19:01:00,,0817.6,5.01,0.00,22.8,22.2,00.0,31.6,24.6,13.4,0000.2,0012.24,0006.67,0006.12
2022-03-30 19:02:00,,0817.6,5.00,0.00,22.8,22.2,00.0,31.6,24.6,13.9,0000.0,0012.33,0006.69,0006.12
2022-03-30 19:03:00,,0817.6,5.00,0.00,22.8,22.2,00.0,31.6,24.6,13.8,0000.0,0012.30,0006.69,0006.10
2022-03-30 19:04:00,,0817.6,5.00,0.00,22.8,22.2,00.0,31.7,24.6,13.2,0000.0,0011.39,0006.70,0006.09
2022-03-30 19:05:00,,0817.7,5.00,0.00,22.8,22.2,00.0,31.7,24.6,13.3,0000.0,0010.59,0006.70,0006.08
2022-03-30 19:06:00,,0817.7,5.00,0.00,22.8,22.2,00.0,31.7,24.7,13.5,0000.0,0010.17,0006.70,0006.08
2022-03-30 19:07:00,,0817.8,5.00,0.00,22.8,22.2,00.0,31.7,24.7,13.6,0000.0,0010.08,0006.70,0006.07
2022-03-30 19:08:00,,0817.7,5.00,0.00,22.8,22.2,00.0,31.7,24.7,13.5,0000.0,0010.10,0006.68,0006.07
2022-03-30 19:09:00,,0817.7,5.00,0.00,22.8,22.3,00.0,31.7,24.7,13.2,0000.0,0010.02,0006.66,0006.04
2022-03-30 19:10:00,,0817.7,5.00,0.00,22.9,22.3,00.0,31.7,24.7,13.1,0000.0,0010.16,0006.64,0006.02
2022-03-30 19:11:00,,0817.7,5.00,0.00,22.9,22.3,00.0,31.7,24.8,13.3,0000.0,0010.55,0006.63,0006.00
2022-03-30 19:12:00,,0817.8,4.99,0.00,22.9,22.3,00.0,31.7,24.8,13.0,0000.0,0010.49,0006.58,0005.95
2022-03-30 19:13:00,,0817.8,5.00,0.00,22.9,22.3,00.0,31.8,24.8,12.4,0000.0,0010.31,0006.50,0005.90
2022-03-30 19:14:00,,0817.7,5.00,0.00,22.9,22.4,00.0,31.8,24.9,12.4,0000.0,0010.67,0006.45,0005.88
2022-03-30 19:15:00,,0817.8,5.00,0.00,23.0,22.4,00.0,31.8,24.9,12.4,0000.0,0011.19,0006.40,0005.86
2022-03-30 19:16:00,,0817.7,4.99,0.00,23.0,22.4,00.0,31.8,24.9,12.5,0000.0,0011.26,0006.41,0005.85
2022-03-30 19:17:00,,0817.7,5.01,0.00,23.0,22.4,00.0,31.8,24.9,12.3,0000.0,0011.22,0006.42,0005.84
2022-03-30 19:18:00,,0817.5,5.00,0.00,23.0,22.4,00.0,31.8,24.9,12.1,0000.0,0011.13,0006.39,0005.82
2022-03-30 19:19:00,,0817.6,4.99,0.00,23.0,22.4,00.0,31.8,24.9,12.2,0000.0,0011.10,0006.36,0005.80
2022-03-30 19:20:00,,0817.5,5.00,0.00,23.0,22.4,00.0,31.9,24.9,12.6,0000.0,0011.05,0006.33,0005.79
2022-03-30 19:21:00,,0817.5,5.00,0.00,23.0,22.5,00.0,31.9,24.9,12.6,0000.0,0010.87,0006.32,0005.77
2022-03-30 19:22:00,,0817.5,5.00,0.00,23.0,22.5,00.0,31.9,24.9,12.8,0000.0,0010.39,0006.30,0005.76
2022-03-30 19:23:00,,0817.5,5.01,0.00,23.1,22.5,00.0,31.9,25.0,12.9,0000.0,0010.68,0006.30,0005.77
2022-03-30 19:24:00,,0817.4,5.01,0.00,23.1,22.5,00.0,31.9,25.0,13.0,0000.0,0010.73,0006.30,0005.78
2022-03-30 19:25:00,,0817.4,5.00,0.00,23.1,22.5,00.0,31.9,25.0,13.1,0000.0,0010.14,0006.28,0005.76
2022-03-30 19:26:00,,0817.4,5.00,0.00,23.1,22.5,00.0,32.0,25.0,12.9,0000.0,0009.71,0006.27,0005.75
2022-03-30 19:27:00,,0817.4,5.00,0.00,23.1,22.5,00.0,32.0,25.0,12.9,0000.0,0009.60,0006.24,0005.72
2022-03-30 19:28:00,,0817.4,5.00,0.00,23.1,22.5,00.0,32.0,25.0,12.7,0000.0,0009.53,0006.17,0005.69
2022-03-30 19:29:00,,0817.5,5.00,0.00,23.1,22.5,00.0,32.0,24.9,12.3,0000.0,0009.64,0006.15,0005.68
2022-03-30 19:30:00,,0817.4,5.00,0.00,23.1,22.4,00.0,32.0,24.9,11.6,0000.0,0009.90,0006.12,0005.65
2022-03-30 19:31:00,,0817.5,4.99,0.00,23.1,22.4,00.0,32.0,24.9,11.7,0000.0,0010.20,0006.10,0005.61
2022-03-30 19:32:00,,0817.4,5.00,0.00,23.1,22.4,00.0,32.0,24.9,11.3,0000.0,0010.29,0006.07,0005.58
2022-03-30 19:33:00,,0817.5,5.01,0.00,23.1,22.4,00.0,32.0,24.9,11.6,0000.0,0010.28,0006.03,0005.53
2022-03-30 19:34:00,,0817.5,5.00,0.00,23.1,22.4,00.0,32.0,24.9,11.7,0000.0,0010.07,0005.99,0005.47
2022-03-30 19:35:00,,0817.5,5.00,0.00,23.1,22.4,00.0,32.0,24.9,11.3,0000.0,0010.03,0005.98,0005.40
2022-03-30 19:36:00,,0817.5,5.00,0.00,23.1,22.5,00.0,32.0,24.9,11.0,0000.0,0010.15,0005.96,0005.34
2022-03-30 19:37:00,,0817.5,4.98,0.00,23.1,22.5,00.0,32.0,25.0,10.8,0000.0,0011.05,0005.90,0005.26
2022-03-30 19:38:00,,0817.5,5.01,0.00,23.1,22.5,00.0,32.0,25.0,11.3,0000.0,0011.10,0005.86,0005.18
2022-03-30 19:39:00,,0817.4,5.01,0.00,23.1,22.5,00.0,32.0,25.0,10.7,0000.0,0011.04,0005.79,0005.12
2022-03-30 19:40:00,,0817.4,5.00,0.00,23.1,22.5,00.0,32.0,25.0,10.0,0000.0,0010.77,0005.70,0005.03
2022-03-30 19:41:00,,0817.4,5.01,0.00,23.2,22.6,00.0,32.1,25.1,10.2,0000.0,0010.37,0005.60,0004.92
2022-03-30 19:42:00,,0817.3,4.99,0.00,23.2,22.6,00.0,32.1,25.0,10.5,0000.0,0010.21,0005.57,0004.84
2022-03-30 19:43:00,,0817.4,5.00,0.00,23.2,22.6,00.0,32.1,25.0,10.0,0000.0,0010.01,0005.52,0004.77
2022-03-30 19:44:00,,0817.4,4.98,0.00,23.2,22.6,00.0,32.1,25.1,10.0,0000.0,0010.09,0005.45,0004.70
2022-03-30 19:45:00,,0817.4,5.00,0.00,23.2,22.6,00.0,32.1,25.1,10.0,0000.0,0010.28,0005.39,0004.64
2022-03-30 19:46:00,,0817.4,5.01,0.00,23.2,22.6,00.0,32.1,25.1,08.5,0000.0,0010.24,0005.25,0004.53
2022-03-30 19:47:00,,0817.4,5.00,0.00,23.2,22.6,00.0,32.1,25.1,07.9,0000.0,0010.14,0005.08,0004.40
2022-03-30 19:48:00,,0817.4,5.00,0.00,23.3,22.6,00.0,32.1,25.1,07.9,0000.0,0009.04,0004.95,0004.28
2022-03-30 19:49:00,,0817.3,5.00,0.00,23.3,22.7,00.0,32.1,25.1,08.3,0000.0,0008.89,0004.83,0004.17
2022-03-30 19:50:00,,0817.3,5.00,0.00,23.3,22.7,00.0,32.1,25.2,08.6,0000.0,0008.95,0004.74,0004.06
2022-03-30 19:51:00,,0817.3,5.00,0.00,23.3,22.7,00.0,32.2,25.2,08.6,0000.0,0008.94,0004.69,0004.00
2022-03-30 19:52:00,,0817.3,5.00,0.00,23.3,22.7,00.0,32.2,25.2,08.6,0000.0,0008.89,0004.65,0003.96
2022-03-30 19:53:00,,0817.3,5.00,0.00,23.4,22.8,00.0,32.2,25.2,08.6,0000.0,0008.67,0004.55,0003.92
2022-03-30 19:54:00,,0817.3,5.01,0.00,23.4,22.8,00.0,32.2,25.2,08.8,0000.0,0008.54,0004.48,0003.85
2022-03-30 19:55:00,,0817.3,5.00,0.00,23.4,22.8,00.0,32.2,25.2,08.0,0000.0,0008.32,0004.39,0003.76
2022-03-30 19:56:00,,0817.2,5.01,0.00,23.4,22.8,00.0,32.2,25.3,07.7,0000.0,0007.98,0004.28,0003.64
2022-03-30 19:57:00,,0817.2,5.00,0.00,23.4,22.9,00.0,32.3,25.3,07.7,0000.0,0008.23,0004.25,0003.59
2022-03-30 19:58:00,,0817.1,5.00,0.00,23.5,22.9,00.0,32.3,25.3,07.9,0000.0,0008.26,0004.26,0003.56
2022-03-30 19:59:00,,0817.1,5.00,0.00,23.5,22.9,00.0,32.3,25.4,07.6,0000.0,0008.26,0004.25,0003.52
